Overview Statistics Trail Chart Weather Telemetry Raw packets
 

This is the latest recevied weather packets stored in our database for station/object KN4AN. If no packets are shown the sender has not sent any weather packets the latest 10 day(s).

<< 1 2 3 4 5 >>
Time Temp. Humidity Pressure Rain* Wind** Luminosity Snow
1788570786 25° C 68% 1014.1 hPa 0 mm - 0 W/m² -
1788570487 25° C 70% 1014.1 hPa 0 mm - 0 W/m² -
1788570182 25.56° C 69% 1013.8 hPa 0 mm - 0 W/m² -
1788569878 25.56° C 67% 1013.8 hPa 0 mm - 0 W/m² -
1788569578 25.56° C 66% 1014.1 hPa 0 mm - 0 W/m² -
1788569278 26.11° C 66% 1014.4 hPa 0 mm - 0 W/m² -
1788568973 25.56° C 66% 1014.4 hPa 0 mm - 0 W/m² -
1788568668 26.11° C 67% 1014.4 hPa 0 mm - 0 W/m² -
1788568364 26.11° C 66% 1014.3 hPa 0 mm - 0 W/m² -
1788568060 26.11° C 66% 1014.3 hPa 0 mm - 0 W/m² -
1788567759 26.11° C 66% 1014.5 hPa 0 mm - 0 W/m² -
1788567455 26.11° C 65% 1014.6 hPa 0 mm - 0 W/m² -
1788567153 26.11° C 65% 1014.5 hPa 0 mm - 0 W/m² -
1788566849 26.67° C 64% 1014.4 hPa 0 mm - 0 W/m² -
1788566545 26.67° C 63% 1014.1 hPa 0 mm - 0 W/m² -
1788566241 27.22° C 62% 1014.1 hPa 0 mm - 0 W/m² -
1788565935 27.78° C 61% 1014.1 hPa 0 mm - 1 W/m² -
1788565635 27.78° C 58% 1014.2 hPa 0 mm - 3 W/m² -
1788565330 28.33° C 57% 1014.4 hPa 0 mm - 6 W/m² -
1788565026 28.33° C 56% 1014.4 hPa 0 mm - 10 W/m² -
1788564722 28.89° C 56% 1014.3 hPa 0 mm - 14 W/m² -
1788564419 28.89° C 55% 1014.2 hPa 0 mm - 20 W/m² -
1788564115 28.89° C 54% 1014.1 hPa 0 mm - 26 W/m² -
1788563810 29.44° C 52% 1014 hPa 0 mm - 22 W/m² -
1788563505 29.44° C 52% 1014.2 hPa 0 mm - 21 W/m² -

* Rain latest hour (hover to see other rain measurements)
** Current wind speed in m/s (hover to see current wind gust speed)